Regional Weather Roundup
Issued by NWS State College, PA

Home | Current Version | Previous Version | Text Only | Print | Product List | Glossary Off
Versions: 1 2 3 4 5 6 7 8 9 10 11 12 13 14 15 16 17 18 19 20 21 22 23 24 25 26 27 28 29 30 31 32 33 34 35 36 37 38 39 40 41 42 43 44 45 46 47 48 49 50

000
ASUS41 KCTP 032310
RWRCTP

REGIONAL WEATHER ROUNDUP
NATIONAL WEATHER SERVICE STATE COLLEGE PA
700 PM EDT THU SEP 03 2015

Note: "fair" indicates few or no clouds below 12,000 feet with no
significant weather and/or obstructions to visibility.

* = STATION THAT DOES NOT REPORT PRECIPITATION /E.G. RAIN...SNOW...ETC/
    THUNDER OR FOG.

PAZ002>004-007>009-013>016-020>023-029>032-040000-
WESTERN PENNSYLVANIA

CITY           SKY/WX    TMP DP  RH WIND       PRES   REMARKS
ERIE           CLOUDY    76  67  73 W7        29.95F
MEADVILLE      PTCLDY    72  64  76 N5        29.98S
FRANKLIN*      PTCLDY    75  64  69 CALM      29.99S
NEW CASTLE     FAIR      79  71  76 W12       29.97R
BEAVER COUNTY  MOCLDY    79  66  65 W8        29.98R
BUTLER*        CLOUDY    77  70  78 CALM      29.98S
PITTSBURGH INT LGT RAIN  79  65  62 W10       29.96R
PITTSBURGH     CLOUDY    79  66  64 CALM      29.95S
INDIANA*       CLEAR     82  70  65 NW5       29.99R
LATROBE        CLEAR     77  72  83 SW7       29.96R
WASHINGTON CO* CLOUDY    73  63  68 W14G21    29.99R THUNDER
$$

PAZ004>006-010>012-017>019-024>028-033>037-041-042-045-046-049>053-040000-
CENTRAL PENNSYLVANIA

CITY           SKY/WX    TMP DP  RH WIND       PRES   REMARKS
BRADFORD       PTCLDY    77  66  68 NW3       30.00R
DUBOIS         MOCLDY    76  59  55 NE10      29.98R THUNDER
CLEARFIELD     MOCLDY    78  65  63 NE3       29.96R
JOHNSTOWN      MOCLDY    79  64  60 NW6       30.01R
ALTOONA        MOCLDY    82  65  56 CALM      29.95R
STATE COLLEGE  CLEAR     77  66  69 NW7       29.95R
WILLIAMSPORT   CLOUDY    77  71  82 SW3       29.88R
SELINSGROVE    MOCLDY    80  76  87 CALM      29.88R FOG
FT INDIANTOWN  PTCLDY    83  68  59 N5        29.86S
CAPITAL CITY   PTCLDY    87  64  46 W6        29.85S
HARRISBURG     MOCLDY    87  67  51 CALM      29.84F
YORK           PTCLDY    80  73  79 CALM      29.86F
$$

PAZ038>040-043-044-047-048-054-055-060>062-067>071-040000-
EASTERN PENNSYLVANIA

CITY           SKY/WX    TMP DP  RH WIND       PRES   REMARKS
SCRANTON       MOCLDY    78  72  81 CALM      29.90R
MOUNT POCONO   MOCLDY    77  69  76 CALM      29.95R
ALLENTOWN      MOCLDY    79  66  64 N17       29.87R
QUAKERTOWN*    PTCLDY    86  70  58 CALM      29.87S
READING        PTCLDY    87  66  49 W6        29.84S
LANCASTER      CLEAR     86  64  47 NW3       29.85S
COATESVILLE    CLEAR     86  66  51 CALM      29.87S
POTTSTOWN      CLEAR     83  69  62 CALM      29.86S
BLUE BELL      CLEAR     81  72  74 CALM      29.84S
DOYLESTOWN     PTCLDY    84  67  56 N3        29.85R
WILLOW GROVE   NOT AVBL
NORTH PHILA    CLEAR     89  61  38 NE7       29.85R
PHILADELPHIA   PTCLDY    91  62  37 NE6       29.83R
$$


USA.gov is the U.S. government's official web portal to all federal, state and local government web resources and services.